Creede, CO

11:09 PM MST on February 27, 2017 (GMT -0700)
Wolf Creek Pass

Weather History for KCPW - February, 2013

Change the Weather History Date:

Saturday, February 23, 2013

  Actual Average (KE33) Record (KE33)
Temperature  
Mean Temperature 6 °F -  
Max Temperature 12 °F 35 °F 51 °F (2002)
Min Temperature 0 °F 20 °F 12 °F (2003)
Degree Days  
Heating Degree Days 59    
Moisture  
Dew Point 4 °F    
Average Humidity 87    
Maximum Humidity 92    
Minimum Humidity 78    
Precipitation  
Precipitation 0.01 in - - ()
Sea Level Pressure  
Sea Level Pressure 29.76 in    
Wind  
Wind Speed 18 mph (SW)    
Max Wind Speed 24 mph    
Max Gust Speed 36 mph    
Visibility 6 miles    
Events Snow    
Averages and records for this station are not official NWS values.
T = Trace of Precipitation, MM = Missing Value Source: NWS Daily Summary

Daily Weather History Graph

Daily Weather History Graph

Search for Another Location

Airport or City:

Trip Planner

Search our weather history database for the weather conditions in past years. The results will help you decide how hot, cold, wet, or windy it might be!

Date:

Astronomy

Feb. 23, 2013 Rise Set
Actual Time 6:46 AM MST 5:55 PM MST
Civil Twilight 6:19 AM MST 6:21 PM MST
Nautical Twilight 5:49 AM MST 6:52 PM MST
Astronomical Twilight 5:19 AM MST 7:22 PM MST
Moon 4:09 PM MST (2/23) 5:08 AM MST (2/23)
Length of Visible Light 12h 02m
Length of Day
11h 09m
Waxing Gibbous, 95% of the Moon is Illuminated
Feb 23
Waxing Gibbous
Feb 25
Full
Mar 4
Last Quarter
Mar 11
New
Mar 19
First Quarter

Hourly Weather History & Observations

Time (MST) Temp. Windchill Dew Point Humidity Pressure Visibility Wind Dir Wind Speed Gust Speed Precip Events Conditions
12:08 AM -0.4 °F -19.9 °F -4.0 °F 85% 29.83 in 10.0 mi WSW 15.0 mph - N/A   Clear
12:28 AM -0.4 °F -18.4 °F -4.0 °F 85% 29.84 in 10.0 mi SW 12.7 mph - N/A   Clear
12:47 AM -0.4 °F -20.5 °F -4.0 °F 85% 29.84 in 10.0 mi SW 16.1 mph - N/A   Scattered Clouds
1:07 AM -0.4 °F -18.4 °F -4.0 °F 85% 29.85 in 10.0 mi SW 12.7 mph - N/A   Clear
1:27 AM -0.4 °F -19.9 °F -4.0 °F 85% 29.84 in 10.0 mi SW 15.0 mph - N/A   Clear
1:47 AM -0.4 °F -21.2 °F -4.0 °F 85% 29.83 in 10.0 mi SW 17.3 mph - N/A   Clear
2:07 AM -0.4 °F -20.5 °F -4.0 °F 85% 29.82 in 10.0 mi SW 16.1 mph - N/A   Scattered Clouds
2:27 AM -0.4 °F -21.7 °F -4.0 °F 85% 29.82 in 10.0 mi SW 18.4 mph - N/A   Scattered Clouds
2:47 AM -0.4 °F -20.5 °F -4.0 °F 85% 29.82 in 10.0 mi SSW 16.1 mph - N/A   Scattered Clouds
3:07 AM -0.4 °F -21.7 °F -4.0 °F 85% 29.81 in 10.0 mi SSW 18.4 mph - N/A   Scattered Clouds
3:27 AM -0.4 °F -22.3 °F -4.0 °F 85% 29.80 in 10.0 mi SW 19.6 mph - N/A   Scattered Clouds
3:47 AM -0.4 °F -21.7 °F -4.0 °F 85% 29.81 in 10.0 mi SW 18.4 mph - N/A   Scattered Clouds
4:07 AM -0.4 °F -19.9 °F -4.0 °F 85% 29.81 in 10.0 mi SW 15.0 mph - N/A   Scattered Clouds
4:27 AM -0.4 °F -20.5 °F -4.0 °F 85% 29.82 in 10.0 mi SW 16.1 mph - N/A   Mostly Cloudy
4:47 AM -0.4 °F -20.5 °F -4.0 °F 85% 29.81 in 10.0 mi SSW 16.1 mph - N/A   Mostly Cloudy
5:07 AM 1.4 °F -18.8 °F -4.0 °F 78% 29.81 in 10.0 mi SW 17.3 mph - N/A   Scattered Clouds
5:28 AM -0.4 °F -19.2 °F -4.0 °F 85% 29.81 in 10.0 mi SSW 13.8 mph - N/A   Scattered Clouds
5:47 AM 1.4 °F -19.9 °F -4.0 °F 78% 29.82 in 10.0 mi SW 19.6 mph - N/A   Scattered Clouds
6:08 AM 1.4 °F -18.8 °F -4.0 °F 78% 29.81 in 10.0 mi SW 17.3 mph - N/A   Clear
6:27 AM -0.4 °F -21.7 °F -4.0 °F 85% 29.81 in 10.0 mi SW 18.4 mph - N/A   Scattered Clouds
6:47 AM -0.4 °F -23.8 °F -4.0 °F 85% 29.82 in 10.0 mi SW 23.0 mph - N/A   Scattered Clouds
7:07 AM -0.4 °F -23.3 °F -4.0 °F 85% 29.83 in 10.0 mi SW 21.9 mph - N/A   Scattered Clouds
7:27 AM 1.4 °F -19.4 °F -4.0 °F 78% 29.82 in 10.0 mi SSW 18.4 mph 25.3 mph N/A   Scattered Clouds
7:47 AM 1.4 °F -19.4 °F -2.2 °F 85% 29.83 in 10.0 mi SW 18.4 mph - N/A   Clear
8:07 AM 5.0 °F -15.2 °F 1.4 °F 85% 29.83 in 10.0 mi SW 19.6 mph - N/A   Clear
8:27 AM 5.0 °F -14.7 °F 3.2 °F 92% 29.84 in 10.0 mi SW 18.4 mph - N/A   Clear
8:47 AM 5.0 °F -14.7 °F 3.2 °F 92% 29.84 in 10.0 mi SW 18.4 mph 23.0 mph N/A   Clear
9:07 AM 8.6 °F -8.9 °F 5.0 °F 85% 29.84 in 10.0 mi SW 16.1 mph - N/A   Clear
9:27 AM 8.6 °F -8.3 °F 5.0 °F 85% 29.84 in 10.0 mi SW 15.0 mph - N/A   Clear
9:47 AM 8.6 °F -10.0 °F 5.0 °F 85% 29.84 in 10.0 mi SW 18.4 mph 21.9 mph N/A   Clear
10:08 AM 8.6 °F -11.0 °F 5.0 °F 85% 29.84 in 4.0 mi SW 20.7 mph 25.3 mph N/A   Clear
10:27 AM 10.4 °F -8.2 °F 6.8 °F 85% 29.84 in 10.0 mi SW 19.6 mph - N/A   Clear
10:47 AM 10.4 °F -8.2 °F 6.8 °F 85% 29.84 in 10.0 mi SW 19.6 mph - N/A   Clear
11:07 AM 10.4 °F -8.2 °F 6.8 °F 85% 29.83 in 10.0 mi SW 19.6 mph - N/A   Clear
11:27 AM 12.2 °F -6.3 °F 8.6 °F 85% 29.82 in 7.0 mi SSW 20.7 mph - N/A   Clear
11:47 AM 12.2 °F -6.7 °F 8.6 °F 85% 29.82 in 7.0 mi SW 21.9 mph - N/A   Clear
12:06 PM 12.2 °F -5.3 °F 10.4 °F 92% 29.81 in 10.0 mi SW 18.4 mph 25.3 mph N/A   Clear
12:27 PM 12.2 °F -6.3 °F 8.6 °F 85% 29.80 in 5.0 mi SW 20.7 mph 27.6 mph N/A   Mostly Cloudy
12:46 PM 12.2 °F -6.3 °F 8.6 °F 85% 29.79 in 5.0 mi SW 20.7 mph 26.5 mph N/A   Overcast
1:06 PM 10.4 °F -8.6 °F 6.8 °F 85% 29.78 in 1.5 mi SW 20.7 mph 28.8 mph N/A Snow Light Snow
1:25 PM 10.4 °F -9.1 °F 6.8 °F 85% 29.76 in 4.0 mi SW 21.9 mph 29.9 mph N/A   Overcast
1:46 PM 10.4 °F -9.5 °F 6.8 °F 85% 29.76 in 1.8 mi SW 23.0 mph 29.9 mph N/A Snow Light Snow
2:06 PM 10.4 °F -9.5 °F 6.8 °F 85% 29.74 in 0.5 mi SW 23.0 mph - N/A Snow Light Snow
2:24 PM 10.4 °F -8.6 °F 8.6 °F 92% 29.74 in 2.0 mi SW 20.7 mph - N/A Snow Light Snow
2:47 PM 10.4 °F -8.2 °F 8.6 °F 92% 29.74 in 0.8 mi SW 19.6 mph 23.0 mph N/A Snow Light Snow
3:06 PM 12.2 °F -4.8 °F 8.6 °F 85% 29.73 in 0.8 mi SW 17.3 mph - N/A Snow Light Snow
3:26 PM 10.4 °F -7.2 °F 8.6 °F 92% 29.72 in 1.8 mi SW 17.3 mph - N/A Snow Light Snow
3:44 PM 12.2 °F -5.3 °F 10.4 °F 92% 29.71 in 1.8 mi SW 18.4 mph - N/A Snow Light Snow
4:06 PM 10.4 °F -6.6 °F 8.6 °F 92% 29.71 in 0.5 mi SW 16.1 mph - N/A Snow Light Snow
4:26 PM 10.4 °F -6.6 °F 8.6 °F 92% 29.71 in 0.2 mi SW 16.1 mph - N/A Snow Snow
4:47 PM 10.4 °F -6.6 °F 8.6 °F 92% 29.70 in 0.2 mi SW 16.1 mph 21.9 mph N/A Snow Snow
5:06 PM 8.6 °F -8.9 °F 6.8 °F 92% 29.69 in 0.2 mi SSW 16.1 mph 21.9 mph N/A Snow Snow
5:27 PM 8.6 °F -10.0 °F 6.8 °F 92% 29.69 in 0.2 mi SW 18.4 mph 25.3 mph N/A Snow Snow
5:47 PM 8.6 °F -11.4 °F 5.0 °F 85% 29.69 in 0.2 mi SW 21.9 mph 26.5 mph N/A Snow Heavy Snow
6:07 PM 8.6 °F -12.3 °F 5.0 °F 85% 29.69 in 0.2 mi SW 24.2 mph 34.5 mph N/A Snow Snow
6:27 PM 8.6 °F -10.0 °F 6.8 °F 92% 29.69 in 0.8 mi SW 18.4 mph 31.1 mph N/A Snow Light Snow
7:07 PM 10.4 °F -8.6 °F 6.8 °F 85% 29.68 in 1.0 mi SW 20.7 mph 34.5 mph N/A Snow Snow
7:27 PM 10.4 °F -7.2 °F 8.6 °F 92% 29.66 in 0.8 mi SW 17.3 mph 29.9 mph N/A Snow Snow
7:47 PM 10.4 °F -8.2 °F 8.6 °F 92% 29.66 in 1.0 mi SSW 19.6 mph 31.1 mph N/A Snow Light Snow
8:06 PM 10.4 °F -8.2 °F 8.6 °F 92% 29.64 in 1.2 mi SW 19.6 mph 27.6 mph N/A Snow Light Snow
8:27 PM 10.4 °F -6.0 °F 8.6 °F 92% 29.64 in 1.0 mi SW 15.0 mph 26.5 mph N/A Snow Light Snow
8:48 PM 10.4 °F -8.2 °F 8.6 °F 92% 29.63 in 4.0 mi SW 19.6 mph 29.9 mph N/A   Overcast
9:07 PM 10.4 °F -8.6 °F 8.6 °F 92% 29.63 in 0.5 mi SW 20.7 mph 28.8 mph N/A Snow Heavy Snow
9:47 PM 10.4 °F -8.6 °F 8.6 °F 92% 29.61 in 0.2 mi SSW 20.7 mph 34.5 mph 0.01 in Snow Heavy Snow
10:08 PM 10.4 °F -8.6 °F 8.6 °F 92% 29.61 in 0.2 mi SW 20.7 mph 34.5 mph N/A Snow Heavy Snow
10:27 PM 10.4 °F -8.6 °F 8.6 °F 92% 29.61 in 0.5 mi SSW 20.7 mph 31.1 mph N/A Snow Snow
10:48 PM 10.4 °F -9.9 °F 8.6 °F 92% 29.59 in 0.2 mi SW 24.2 mph 29.9 mph N/A Snow Heavy Snow
11:07 PM 10.4 °F -9.5 °F 8.6 °F 92% 29.59 in 0.2 mi SW 23.0 mph 33.4 mph N/A Snow Heavy Snow
11:27 PM 10.4 °F -8.2 °F 8.6 °F 92% 29.59 in 0.2 mi SSW 19.6 mph 35.7 mph N/A Snow Heavy Snow
11:47 PM 10.4 °F -8.2 °F 8.6 °F 92% 29.59 in 0.2 mi SSW 19.6 mph 34.5 mph N/A Snow Heavy Snow